When you browse on this site, cookies collect data to enhance your experience and personalize the content and advertising you see.
Visit our Privacy Policy to learn more. By continuing to use the site, you agree to this use of cookies and data.
  • în România
  • Lista ţărilor
  • Pe 7 zile
  • Temperatura apei
  • Hartă satelitară
  • Meteo pe hartă
  • Widget-uri
  • user-avatar
    Intrare

    Meteo pe oră la Houston

    Astăzi, 16 Februarie, Sâmbătă

    Timp Temperatura Precipitaţii Vânt Presiune Umiditate
    00:00 +19°C° 0 mm 0 m/s 756 mmHg 96%
    01:00 +19°C° 0 mm 0 m/s 756 mmHg 96%
    02:00 +19°C° 0 mm 0 m/s 756 mmHg 96%
    03:00 +19°C° 0 mm 0 m/s 756 mmHg 96%
    04:00 +21°C° 0 mm 1 m/s 756 mmHg 94%
    05:00 +19°C° 0 mm 2 m/s 756 mmHg 91%
    06:00 +19°C° 0 mm 2 m/s 756 mmHg 89%
    07:00 +18°C° 0 mm 2 m/s 756 mmHg 86%
    08:00 +18°C° 0 mm 3 m/s 756 mmHg 83%
    09:00 +17°C° 0 mm 3 m/s 756 mmHg 79%
    10:00 +17°C° 0 mm 3 m/s 756 mmHg 79%
    11:00 +17°C° 0 mm 3 m/s 756 mmHg 79%
    12:00 +17°C° 0 mm 2 m/s 756 mmHg 79%
    13:00 +18°C° 0 mm 2 m/s 756 mmHg 79%
    14:00 +18°C° 0 mm 2 m/s 755 mmHg 79%
    15:00 +19°C° 0 mm 2 m/s 754 mmHg 79%
    16:00 +19°C° 0 mm 2 m/s 754 mmHg 81%
    17:00 +19°C° 0 mm 2 m/s 754 mmHg 83%
    18:00 +20°C° 0 mm 1 m/s 754 mmHg 85%
    19:00 +19°C° 0 mm 1 m/s 754 mmHg 86%
    20:00 +19°C° 0 mm 1 m/s 754 mmHg 87%
    21:00 +19°C° 0 mm 1 m/s 754 mmHg 88%
    22:00 +19°C° 0 mm 1 m/s 754 mmHg 89%
    23:00 +19°C° 0 mm 1 m/s 754 mmHg 91%

    Mâine, 17 Februarie, Duminică

    Timp Temperatura Precipitaţii Vânt Presiune Umiditate
    00:00 +19°C° 0 mm 1 m/s 753 mmHg 93%
    01:00 +20°C° 0 mm 1 m/s 753 mmHg 95%
    02:00 +19°C° 0 mm 2 m/s 753 mmHg 96%
    03:00 +19°C° 0 mm 2 m/s 753 mmHg 97%
    04:00 +19°C° 0 mm 2 m/s 754 mmHg 96%
    05:00 +19°C° 0 mm 2 m/s 754 mmHg 95%
    06:00 +19°C° 0 mm 3 m/s 754 mmHg 94%
    07:00 +19°C° 0 mm 3 m/s 755 mmHg 88%
    08:00 +20°C° 0 mm 4 m/s 756 mmHg 83%
    09:00 +20°C° 0 mm 4 m/s 756 mmHg 77%
    10:00 +20°C° 0 mm 4 m/s 757 mmHg 63%
    11:00 +21°C° 0 mm 5 m/s 757 mmHg 48%
    12:00 +21°C° 0 mm 5 m/s 758 mmHg 34%
    13:00 +21°C° 0 mm 5 m/s 758 mmHg 32%
    14:00 +21°C° 0 mm 4 m/s 757 mmHg 30%
    15:00 +21°C° 0 mm 4 m/s 757 mmHg 29%
    16:00 +21°C° 0 mm 4 m/s 758 mmHg 31%
    17:00 +20°C° 0 mm 4 m/s 758 mmHg 33%
    18:00 +20°C° 0 mm 3 m/s 759 mmHg 35%
    19:00 +19°C° 0 mm 4 m/s 759 mmHg 38%
    20:00 +18°C° 0 mm 4 m/s 760 mmHg 41%
    21:00 +17°C° 0 mm 4 m/s 761 mmHg 44%
    22:00 +15°C° 0 mm 4 m/s 761 mmHg 48%
    23:00 +14°C° 0 mm 5 m/s 761 mmHg 51%

    Poimâine, 18 Februarie, Luni

    Timp Temperatura Precipitaţii Vânt Presiune Umiditate
    00:00 +13°C° 0 mm 5 m/s 761 mmHg 54%
    01:00 +13°C° 0 mm 5 m/s 761 mmHg 56%
    02:00 +12°C° 0 mm 5 m/s 761 mmHg 59%
    03:00 +10°C° 0 mm 5 m/s 761 mmHg 61%
    04:00 +10°C° 0 mm 5 m/s 762 mmHg 61%
    05:00 +10°C° 0 mm 5 m/s 762 mmHg 60%
    06:00 +9°C° 0 mm 5 m/s 762 mmHg 60%
    07:00 +10°C° 0 mm 5 m/s 763 mmHg 59%
    08:00 +10°C° 0 mm 5 m/s 763 mmHg 58%
    09:00 +10°C° 0 mm 5 m/s 764 mmHg 57%
    10:00 +12°C° 0 mm 5 m/s 763 mmHg 59%
    11:00 +12°C° 0 mm 5 m/s 763 mmHg 60%
    12:00 +13°C° 0 mm 4 m/s 763 mmHg 61%
    13:00 +12°C° 0.3 mm 4 m/s 763 mmHg 65%
    14:00 +12°C° 0.3 mm 4 m/s 762 mmHg 68%
    15:00 +12°C° 0.3 mm 4 m/s 761 mmHg 72%
    16:00 +12°C° 0.7 mm 4 m/s 761 mmHg 74%
    17:00 +11°C° 0.7 mm 4 m/s 761 mmHg 76%
    18:00 +11°C° 0.7 mm 4 m/s 761 mmHg 78%
    19:00 +11°C° 0.5 mm 4 m/s 762 mmHg 79%
    20:00 +11°C° 0.5 mm 4 m/s 762 mmHg 80%
    21:00 +11°C° 0.5 mm 4 m/s 762 mmHg 81%
    22:00 +10°C° 0.1 mm 5 m/s 762 mmHg 81%
    23:00 +12°C° 0.1 mm 5 m/s 761 mmHg 81%

    19 Februarie, Marţi

    Timp Temperatura Precipitaţii Vânt Presiune Umiditate
    00:00 +12°C° 0.1 mm 5 m/s 761 mmHg 81%
    01:00 +12°C° 0 mm 5 m/s 760 mmHg 81%
    02:00 +12°C° 0 mm 4 m/s 760 mmHg 82%
    03:00 +12°C° 0 mm 4 m/s 759 mmHg 82%
    04:00 +12°C° 0.1 mm 4 m/s 759 mmHg 84%
    05:00 +12°C° 0.1 mm 4 m/s 759 mmHg 85%
    06:00 +12°C° 0.1 mm 4 m/s 758 mmHg 87%
    07:00 +12°C° 0.2 mm 4 m/s 758 mmHg 87%
    08:00 +12°C° 0.2 mm 3 m/s 758 mmHg 88%
    09:00 +12°C° 0.2 mm 3 m/s 758 mmHg 89%
    10:00 +13°C° 0.2 mm 3 m/s 758 mmHg 89%
    11:00 +14°C° 0.2 mm 2 m/s 758 mmHg 89%
    12:00 +15°C° 0.2 mm 2 m/s 757 mmHg 89%
    13:00 +15°C° 0.3 mm 2 m/s 757 mmHg 89%
    14:00 +15°C° 0.3 mm 2 m/s 756 mmHg 90%
    15:00 +15°C° 0.3 mm 2 m/s 755 mmHg 91%
    16:00 +16°C° 0.1 mm 2 m/s 755 mmHg 91%
    17:00 +16°C° 0.1 mm 2 m/s 755 mmHg 90%
    18:00 +16°C° 0.1 mm 2 m/s 755 mmHg 90%
    19:00 +16°C° 0 mm 2 m/s 756 mmHg 91%
    20:00 +16°C° 0 mm 2 m/s 756 mmHg 92%
    21:00 +16°C° 0 mm 2 m/s 756 mmHg 92%
    22:00 +16°C° 0.1 mm 2 m/s 756 mmHg 92%
    23:00 +16°C° 0.1 mm 2 m/s 756 mmHg 92%

    20 Februarie, Miercuri

    Timp Temperatura Precipitaţii Vânt Presiune Umiditate
    00:00 +16°C° 0.1 mm 2 m/s 756 mmHg 92%
    01:00 +16°C° 0.2 mm 3 m/s 756 mmHg 91%
    02:00 +14°C° 0.2 mm 3 m/s 756 mmHg 91%
    03:00 +14°C° 0.2 mm 3 m/s 756 mmHg 91%
    04:00 +14°C° 1.1 mm 4 m/s 756 mmHg 90%
    05:00 +14°C° 1.1 mm 4 m/s 756 mmHg 89%
    06:00 +13°C° 1.1 mm 4 m/s 756 mmHg 88%
    07:00 +13°C° 0.3 mm 5 m/s 757 mmHg 86%
    08:00 +13°C° 0.3 mm 5 m/s 757 mmHg 85%
    09:00 +13°C° 0.3 mm 5 m/s 758 mmHg 83%
    10:00 +13°C° 0.3 mm 5 m/s 758 mmHg 83%
    11:00 +13°C° 0.3 mm 5 m/s 758 mmHg 83%
    12:00 +13°C° 0.3 mm 5 m/s 758 mmHg 83%
    13:00 +12°C° 0.2 mm 5 m/s 758 mmHg 83%
    14:00 +12°C° 0.2 mm 4 m/s 757 mmHg 83%
    15:00 +12°C° 0.2 mm 4 m/s 757 mmHg 84%
    16:00 +12°C° 0.1 mm 4 m/s 757 mmHg 84%
    17:00 +12°C° 0.1 mm 5 m/s 758 mmHg 84%
    18:00 +12°C° 0.1 mm 5 m/s 758 mmHg 84%
    19:00 +12°C° 0 mm 5 m/s 758 mmHg 84%
    20:00 +12°C° 0 mm 4 m/s 758 mmHg 84%
    21:00 +12°C° 0 mm 4 m/s 759 mmHg 85%
    22:00 +12°C° 0.4 mm 4 m/s 759 mmHg 86%
    23:00 +12°C° 0.4 mm 4 m/s 758 mmHg 87%

    21 Februarie, Joi

    Timp Temperatura Precipitaţii Vânt Presiune Umiditate
    00:00 +12°C° 0.4 mm 4 m/s 758 mmHg 88%
    01:00 +12°C° 0.4 mm 4 m/s 758 mmHg 88%
    02:00 +12°C° 0.4 mm 3 m/s 758 mmHg 89%
    03:00 +12°C° 0.4 mm 3 m/s 757 mmHg 90%
    04:00 +12°C° 0.1 mm 3 m/s 757 mmHg 90%
    05:00 +12°C° 0.1 mm 3 m/s 757 mmHg 90%
    06:00 +12°C° 0.1 mm 3 m/s 757 mmHg 90%
    07:00 +13°C° 0 mm 3 m/s 758 mmHg 89%
    08:00 +13°C° 0 mm 3 m/s 758 mmHg 88%
    09:00 +14°C° 0 mm 3 m/s 758 mmHg 87%
    10:00 +14°C° 0 mm 3 m/s 758 mmHg 87%
    11:00 +16°C° 0 mm 2 m/s 758 mmHg 86%
    12:00 +16°C° 0 mm 2 m/s 758 mmHg 85%
    13:00 +17°C° 0 mm 2 m/s 757 mmHg 85%
    14:00 +17°C° 0 mm 3 m/s 757 mmHg 85%
    15:00 +17°C° 0 mm 3 m/s 756 mmHg 85%
    16:00 +17°C° 0.2 mm 3 m/s 756 mmHg 87%
    17:00 +17°C° 0.2 mm 3 m/s 757 mmHg 88%
    18:00 +16°C° 0.2 mm 3 m/s 757 mmHg 90%
    19:00 +16°C° 0.3 mm 3 m/s 757 mmHg 90%
    20:00 +16°C° 0.3 mm 3 m/s 758 mmHg 91%
    21:00 +16°C° 0.3 mm 3 m/s 758 mmHg 91%
    22:00 +16°C° 0.1 mm 3 m/s 759 mmHg 90%
    23:00 +16°C° 0.1 mm 3 m/s 759 mmHg 90%
    Arată mai mult